RH
61 95 100 99 79 64 44 33 22 25 29 32 38 33 36 30 31 37 44 51 60 70 82 89 78 70 76 72 57 50 37 34 30 31 37 44 47 49 49 52 49 50 59
68 93 96 90 70 65 36 26 20 26 30 32 39 52 55 56 56 60 69 80 88 86 85 83 77 67 51 40 39 39 46 48 42 36 39 42 54 56 61 65 71 83 90
62 100 99 97 71 59 46 35 21 19 23 32 42 53 62 73 76 82 88 93 86 79 70 49 45 52 58 59 56 51 45 47 52 46 43 46 54 57 80 93 92 91 88
46 90 100 96 87 61 44 36 26 23 22 27 45 61 65 69 74 83 78 75 76 59 47 55 61 60 57 50 46 46 49 52 54 61 70 62 52 47 46 62 67 65 72
33 70 100 100 92 71 46 37 30 23 24 26 27 33 37 44 52 59 64 64 52 54 62 57 49 46 44 46 51 61 71 84 90 88 82 79 84 80 61 52 59 61 63
24 30 78 100 89 94 55 38 33 30 30 29 26 29 31 36 40 46 50 50 60 63 61 62 62 68 80 92 94 89 80 70 63 56 55 60 60 54 49 41 40 40 50
21 27 31 74 92 100 73 48 40 38 35 31 38 41 44 50 56 63 69 70 70 72 73 76 84 79 75 74 74 69 60 61 67 69 71 61 51 43 37 31 27 25 26
26 24 19 37 71 100 100 69 50 44 43 46 49 54 60 66 72 77 82 88 85 80 89 94 92 93 93 83 70 62 61 62 62 53 44 40 35 35 33 28 27 24 23
24 22 21 24 29 66 94 100 80 58 55 57 63 75 86 90 92 91 90 89 95 98 95 90 93 92 76 55 55 54 53 46 39 35 34 34 35 34 30 27 23 16 15
22 19 20 23 28 33 67 75 93 95 86 82 87 90 92 93 95 91 92 94 98 93 92 87 69 56 54 51 48 44 38 38 41 39 36 33 30 28 24 19 17 14 11
23 20 24 26 28 30 38 71 87 80 86 93 98 99 96 96 95 86 83 86 86 72 61 60 55 57 49 43 38 37 35 39 41 43 40 35 26 20 17 15 14 12 7
24 21 28 29 28 32 36 41 66 80 87 100 100 100 100 92 81 78 73 68 60 61 61 61 57 47 40 36 32 41 43 42 41 39 31 23 19 16 13 10 6 5 5
21 22 28 30 30 30 32 33 66 87 92 94 100 99 86 84 78 69 63 69 78 67 66 55 45 41 33 34 38 40 44 46 43 24 20 15 12 9 6 4 4 3 2
23 23 28 32 31 30 35 37 68 80 98 100 95 84 84 78 72 68 76 72 70 57 49 43 37 31 37 39 43 47 48 40 25 17 12 9 6 4 4 3 2 2 2
26 26 30 32 37 38 35 35 66 90 100 100 91 91 84 82 91 71 66 62 54 49 43 33 31 36 41 46 51 55 46 23 15 10 7 5 4 4 2 2 2 2 2
27 27 32 43 39 41 42 63 100 100 98 89 94 99 96 81 60 59 54 52 50 42 29 35 44 50 57 53 56 39 23 16 10 6 5 5 4 3 3 2 2 2 2
29 33 41 44 46 45 77 100 100 98 92 100 98 85 61 51 53 53 53 44 34 34 43 46 49 56 56 55 34 23 15 9 6 5 4 4 3 3 3 2 2 2 2
40 44 48 52 60 91 100 100 95 98 100 82 58 49 49 52 50 45 40 38 41 48 47 49 53 57 56 37 21 14 10 6 5 4 3 2 3 3 2 2 2 2 2
52 50 53 72 98 100 100 100 96 89 66 54 46 51 54 46 44 51 47 51 48 48 47 54 54 52 38 21 13 9 6 5 5 4 2 2 3 2 2 2 2 2 2
54 76 94 95 92 88 99 91 83 56 48 51 56 48 41 50 54 52 52 51 45 46 59 63 50 36 20 13 10 7 5 5 4 3 3 3 3 3 2 2 2 2 2
97 88 78 88 90 95 92 63 47 53 57 50 42 48 55 52 49 49 47 49 54 62 60 55 40 22 12 10 7 6 5 4 3 3 3 3 3 3 2 2 2 2 1
80 87 92 94 91 76 52 56 61 51 40 45 54 54 52 54 46 50 50 56 62 61 51 30 19 12 10 6 6 6 5 4 3 3 3 4 3 2 2 3 2 2 2
100 93 85 78 66 61 68 57 36 42 50 61 61 64 52 49 54 53 60 64 64 49 20 14 11 10 7 6 7 6 5 4 4 3 3 2 2 3 3 2 2 3 4
89 83 69 68 71 60 40 39 47 60 70 69 63 50 54 56 57 60 65 69 45 16 12 11 9 6 6 7 6 5 5 4 4 3 2 2 3 4 4 2 3 4 6
75 72 72 60 42 45 50 56 62 70 67 59 55 58 58 56 60 73 76 52 23 12 10 8 6 6 6 7 5 5 4 4 4 2 3 4 4 4 3 3 5 6 7
81 70 54 56 57 59 63 64 64 60 55 57 63 56 54 62 71 72 63 24 12 11 8 6 6 6 6 4 5 4 4 3 3 4 4 4 4 4 3 4 6 8 7
Wind_Speed
20 20 22 22 22 25 27 30 32 30 28 28 27 28 28 30 32 34 37 41 43 45 47 51 55 58 59 60 61 62 61 62 62 63 66 70 74 78 80 84 88 90 92
23 23 23 22 24 26 27 30 29 29 28 29 29 30 29 31 33 35 38 41 45 48 51 54 57 59 61 61 60 61 63 67 71 72 74 75 78 83 86 89 91 94 97
21 24 24 23 24 28 31 32 32 31 30 31 32 33 35 37 39 41 44 47 50 51 54 54 53 56 58 61 64 67 69 70 76 80 81 81 83 84 89 93 97 100 104
24 27 28 27 27 28 30 32 34 33 33 33 35 37 39 41 44 46 47 48 50 53 53 56 59 62 64 66 69 72 75 77 80 85 91 94 94 93 89 97 101 105 108
28 30 34 31 29 29 32 33 33 34 34 34 35 37 40 43 46 48 49 51 53 54 58 61 64 67 69 71 75 78 81 85 88 91 94 98 104 109 110 102 108 111 116
35 30 33 35 34 33 34 34 34 34 34 36 37 37 40 43 45 48 50 52 55 59 62 65 68 70 73 77 81 85 88 91 96 100 103 107 110 115 119 121 117 119 119
41 37 31 35 37 37 37 38 36 34 37 39 36 37 40 43 46 49 52 56 59 63 66 69 72 75 78 83 87 92 97 101 104 108 113 118 123 125 127 129 128 127 125
42 41 35 33 38 41 42 42 41 41 41 39 40 41 44 47 51 55 58 61 65 69 73 76 79 83 87 91 95 99 103 108 111 117 122 123 124 127 131 135 138 137 133
44 47 43 38 38 42 45 47 48 45 45 46 46 47 51 55 59 61 64 67 70 74 78 81 85 90 94 98 101 106 111 114 118 119 122 124 128 134 140 144 144 149 140
47 49 49 49 46 46 49 53 53 52 51 51 51 53 57 61 64 66 69 73 77 80 83 87 91 96 100 104 108 111 113 116 117 122 126 133 140 144 148 152 151 146 139
51 50 52 51 52 53 53 56 59 61 60 58 59 61 63 67 70 72 75 78 81 85 90 93 97 102 106 108 109 111 113 117 122 129 136 141 146 150 151 147 146 143 132
53 54 54 54 57 58 59 60 63 64 64 65 67 69 71 72 72 76 79 83 88 92 95 99 103 104 107 109 108 113 119 124 130 137 143 148 151 148 147 142 129 118 115
56 56 58 59 59 61 63 64 65 68 69 70 71 73 73 73 77 80 84 88 92 96 99 102 104 108 110 110 118 123 126 132 139 145 147 145 145 140 128 115 112 108 103
57 59 61 64 64 66 68 67 69 71 71 69 72 72 72 75 79 85 89 93 95 98 102 106 108 109 113 119 125 128 133 140 143 144 147 142 132 117 113 110 104 97 94
60 61 64 67 69 71 73 73 72 72 66 66 68 71 75 80 85 88 94 98 100 103 104 105 109 114 121 126 127 132 135 140 143 146 137 125 116 114 107 101 96 91 87
65 65 66 69 71 74 72 69 69 63 64 69 72 76 81 86 90 95 98 100 102 103 104 109 115 120 123 127 134 135 140 144 145 134 120 116 112 106 102 96 91 88 83
65 67 69 71 74 73 68 65 65 65 69 73 77 82 86 92 95 98 98 99 101 103 110 116 119 125 129 133 135 139 142 137 130 121 116 112 104 99 95 91 89 89 87
67 68 70 73 71 66 63 67 69 70 74 78 84 88 92 94 94 95 98 100 106 113 116 118 123 129 134 133 135 137 135 130 122 118 111 102 97 94 91 88 85 86 84
67 71 71 68 65 65 62 65 70 76 81 85 90 91 90 90 93 98 103 109 113 117 119 123 125 131 135 136 137 133 125 120 116 110 103 96 91 90 86 82 76 75 73
70 64 55 55 57 61 66 71 78 83 87 90 87 84 89 92 98 103 110 114 118 119 119 126 130 135 135 135 131 124 117 113 106 101 96 91 89 85 79 72 67 67 64
54 54 57 58 62 67 73 79 83 86 84 80 84 88 94 98 104 109 113 116 116 121 125 129 134 136 134 130 123 117 113 106 99 95 90 85 84 79 74 66 61 58 55
52 54 59 63 69 75 80 81 81 76 79 83 90 95 101 106 109 112 117 120 124 129 132 133 132 131 128 121 113 111 106 100 94 90 82 78 75 72 69 63 57 50 46
57 62 67 72 76 76 77 72 75 78 85 91 97 103 106 110 114 117 120 127 130 133 131 129 127 124 118 110 107 101 98 93 90 85 78 74 69 66 63 54 48 43 41
65 69 72 72 73 69 71 75 81 86 92 98 103 105 109 114 118 122 127 131 133 130 127 125 121 112 108 103 97 93 91 87 84 81 75 67 65 59 55 48 40 38 36
68 69 71 66 68 72 77 82 88 93 99 103 106 109 114 118 122 128 132 133 131 128 125 117 110 105 99 94 91 87 85 80 77 73 64 60 57 51 45 39 36 36 32
65 62 66 70 75 80 84 89 94 98 102 106 111 114 117 122 127 131 133 131 126 122 116 111 107 100 94 91 84 82 78 75 70 65 57 53 47 42 37 33 34 32 26
Wind_Direction
260 254 259 266 271 277 280 288 289 289 290 291 287 279 277 271 267 267 268 269 272 276 278 281 281 283 285 287 287 289 289 287 284 282 284 285 286 286 287 288 289 289 289
264 256 261 266 273 284 283 290 290 290 291 291 287 281 277 274 273 272 275 277 278 280 283 284 284 286 288 289 290 289 289 289 288 287 287 286 288 289 290 290 290 290 290
273 256 262 267 275 284 286 291 292 289 288 286 284 282 279 278 279 278 278 280 281 284 285 287 289 291 292 292 291 291 289 289 290 290 288 286 287 286 287 287 288 288 288
282 261 265 268 274 279 283 289 294 293 287 280 275 277 279 279 279 279 280 283 285 286 288 291 293 293 292 292 292 292 292 291 290 290 290 290 287 284 282 284 284 285 285
291 269 268 274 276 279 284 284 289 290 290 286 281 276 277 278 279 282 283 284 286 289 291 292 292 292 293 293 291 291 291 291 290 289 288 289 289 288 288 286 284 284 284
286 287 270 273 278 281 281 282 286 288 286 286 287 288 285 283 284 285 286 288 289 290 290 291 292 292 292 293 293 292 291 290 290 290 289 288 287 287 287 287 286 285 284
284 286 287 271 276 283 282 282 282 283 283 286 288 286 285 286 286 286 287 288 288 289 290 290 291 293 293 293 293 293 293 292 291 291 291 290 291 292 291 291 290 288 288
281 281 289 282 277 281 285 283 280 280 284 286 285 286 287 285 285 286 287 288 289 290 292 292 292 293 294 294 293 292 293 293 292 293 294 293 292 292 291 290 292 292 294
284 287 288 289 285 282 282 283 282 283 285 284 285 286 285 285 285 285 288 290 290 290 290 291 292 291 291 292 293 293 294 295 296 295 295 293 292 291 292 293 296 299 298
279 282 286 289 288 285 281 282 283 281 280 281 282 284 284 285 288 289 290 290 291 291 291 291 291 292 293 294 296 297 298 298 296 295 293 292 293 294 297 299 300 301 301
276 281 283 286 288 286 283 281 281 283 283 284 285 285 286 287 289 290 290 292 292 292 293 293 295 296 297 299 299 300 299 298 297 297 296 296 297 300 301 300 299 298 298
277 281 280 284 285 286 286 284 283 284 282 284 286 286 287 290 291 291 293 293 295 295 295 297 299 299 300 300 301 301 301 299 299 299 300 299 301 300 300 301 299 298 296
277 279 277 280 282 285 288 288 283 282 281 282 286 288 291 292 292 294 294 294 296 298 300 299 300 300 301 303 305 304 304 303 301 300 301 302 302 304 303 302 301 300 298
278 278 275 277 281 283 287 290 285 284 283 286 287 289 291 292 294 294 295 298 300 301 300 301 301 304 306 306 305 305 305 303 302 302 305 306 306 304 304 303 301 299 297
277 278 277 277 282 285 286 289 287 283 287 288 290 291 293 294 295 298 300 301 300 300 301 302 304 307 306 306 305 306 305 304 305 308 307 307 306 307 306 303 301 299 296
275 277 278 277 282 286 290 289 285 285 288 291 292 294 295 296 298 299 300 300 301 301 303 307 310 308 307 307 307 306 306 307 308 309 308 308 309 307 305 304 302 299 296
276 276 278 281 285 288 288 286 286 289 291 292 293 294 297 298 299 300 301 301 303 307 309 309 308 308 308 307 307 307 308 309 310 310 310 310 310 308 305 303 303 301 299
275 279 282 285 286 284 283 285 290 289 291 292 293 295 298 299 300 301 303 307 309 310 309 308 308 308 308 309 308 308 309 310 311 310 310 311 310 307 305 306 304 299 297
278 281 282 283 283 284 286 288 289 291 293 294 296 298 299 301 303 305 308 309 309 309 307 308 308 308 310 309 308 310 311 310 311 310 311 312 310 307 307 306 305 301 299
278 282 281 280 283 285 287 290 291 292 294 297 299 299 302 304 307 308 308 310 310 308 308 309 309 310 311 311 311 312 311 311 311 312 313 313 310 310 309 308 307 304 302
275 276 280 282 286 287 290 292 293 295 298 299 301 304 306 307 309 310 310 309 308 308 310 310 312 311 311 312 313 312 312 312 312 313 313 313 311 310 309 312 311 308 305
277 282 285 286 288 290 293 296 296 297 301 304 305 307 308 309 310 310 309 309 310 311 312 312 312 311 312 312 313 313 312 312 313 312 314 313 311 310 313 316 313 311 307
283 283 285 288 291 293 294 294 298 302 304 306 306 306 309 310 310 310 310 311 313 313 312 312 312 311 310 312 313 313 312 313 314 314 315 314 311 313 316 317 314 311 306
281 284 288 290 291 292 294 299 301 303 304 303 306 309 310 310 311 311 313 314 314 313 313 312 312 312 312 314 313 313 314 315 315 314 317 314 313 318 318 317 315 311 310
285 287 288 289 291 295 298 300 302 302 304 305 307 309 309 311 312 313 313 314 313 313 311 311 311 312 314 313 314 315 315 315 314 315 316 312 315 318 317 314 313 313 314
287 288 291 295 297 298 300 300 301 302 304 306 307 309 310 311 311 313 313 313 313 313 312 311 313 314 315 314 316 316 316 316 317 316 314 315 319 318 315 315 316 320 320